WBSBWBGR

Guest
Details From WBSB - Brunei Intl
To WBGR - Miri
Flight Number -
Tags generated
Created
Modified
Stats Distance 68 nm / 126 km
Max Altitude 200 ft / 61 m
Waypoints 3
Social Downloads 0
Likes 0
Share VATSIM

Download

Looking for another format? Having issues loading an existing format? Contact us
Advertisement - Login to hide

Notes

Basic altitude profile: - Ascent Rate: 2500ft/min - Ascent Speed: 250kts - Cruise Altitude: 35000ft - Cruise Speed: 420kts - Descent Rate: 1500ft/min - Descent Speed: 250kts Options: - Use NATs: yes - Use PACOTS: yes - Use low airways: yes - Use high airways: yes

Route

WBSB VMI WBGR

ID Type Via Altitude Latitude Longitude Leg Dist Tot Dist Heading (true) Name
O WBSB APT - 0 ft / 0 m 4.94417˚ 114.92833˚ - 0 nm - Brunei Intl
VMI VOR - 200 ft / 61 m 4.33778˚ 113.99419˚ 66 nm 66 nm 237° / 237° MIRI VOR-DME
O WBGR APT - 0 ft / 0 m 4.32207˚ 113.98681˚ 1 nm 67 nm 205° / 205° Miri

Altitude Profile

Advertisement - Login to hide

WBSB

Details ICAO WBSB (BWN)
Name Brunei Intl
Region Brunei and Malaysia
Timezone Asia/Brunei (UTC+8.0)
Stats Elevation 73 ft / 22 m (AMSL)
Location 4.944172° 114.928327°
Runways 1
Magnetic Variation 0.246° W

METAR

WBSB 231930Z 19003KT 9999 FEW014 FEW016CB BKN300 27/26 Q1007 NOSIG

Decode

TAF

TAF WBSB 231700Z 2318/2500 20003KT 9999 FEW014 FEW015CB BECMG 2404/2406 02008KT FEW016 FEW017CB TEMPO 2408/2410 7000 -SHRA

Decode

Departure Runways

ID Width Length Bearing (true) Bearing (mag) Surface Threshold Offset Overrun Length
03 151 ft / 46 m 12,044 ft / 3,671 m 30.90° 31.15° Asphalt 0 ft / 0 m 69 ft / 21 m
21 151 ft / 46 m 12,044 ft / 3,671 m 210.90° 211.15° Asphalt 0 ft / 0 m 69 ft / 21 m

WBGR

Details ICAO WBGR (MYY)
Name Miri
Region Brunei and Malaysia
Timezone Asia/Kuching (UTC+8.0)
Stats Elevation 59 ft / 18 m (AMSL)
Location 4.322068° 113.986806°
Runways 1
Magnetic Variation 0.115° W

METAR

WBGR 231900Z VRB01KT 9999 FEW016 BKN150 26/25 Q1006

Decode

TAF

TAF WBGR 231700Z 2318/2418 VRB03KT 9999 SCT016 TEMPO 2406/2410 29006KT 4000 TSRA FEW015CB

Decode

Destination Runways

ID Width Length Bearing (true) Bearing (mag) Surface Threshold Offset Overrun Length
02 197 ft / 60 m 9,040 ft / 2,755 m 24.85° 24.96° Asphalt 0 ft / 0 m 200 ft / 61 m
20 197 ft / 60 m 9,040 ft / 2,755 m 204.85° 204.96° Asphalt 0 ft / 0 m 200 ft / 61 m

Approach Navaids

Runway Type Ident Frequency Range Bearing (true) Bearing (mag) Slope Elevation
02 Localiser IMR 110.10 MHz 18 nm / 33 km 25.02° 25.14° - 59 ft / 18 m (AMSL)
02 Glidescope IMR 110.10 MHz 10 nm / 19 km 24.85° 24.96° 3.00° 56 ft / 17 m (AMSL)
02 DME IMR 110.10 MHz 18 nm / 33 km - - - 59 ft / 18 m (AMSL)

Popular Alternatives